Вернуться в каталог

KUIPER-00619

АктивенСвязьLEO
NORAD 69777·PAYLOAD·🇺🇸 United States

Запущен Jul 2, 2026 с Cape Canaveral Space Force Station

Loading…

Ближайшие Пролёты (ближайшие 24 часа)

TLE

СвежийSource: CelesTrak SupGP

Эпоха: Sep 14, 2026, 20:34 UTC

1 69777C 26151Q   26257.85702546  .00000901  00000+0  12769-3 0  2574
2 69777  51.8999 251.2782 0001751 139.3348 180.2952 14.76573689    15

Отслеживайте KUIPER-00619 в реальном времени с AllMySat

Download on the App Store